Showing default

SATELIOT_4, 60537

Orbit data source: Space-Track

SATELIOT_4, 60537 is a payload satellite owned by Sateliot (ES) in SSO that was launched on Fri, 16 Aug 2024 UTC via an FALCON 9 launch vehicle from the Air Force Western Test Range (AFWTR). Payload-class satellites include a variety of spacecraft equipped with specific instruments for various scientific and technological missions. These include communications satellites like Starlink; space stations such as the ISS; scientific satellites like the Hubble; Earth observation satellites from companies like Planet Labs, Umbra, and HawkEye 360; GPS; miniature CubeSats for education and research; and military/defense satellites.

Loading next visibility...
Identifier
60537, 2024-149BX
Orbit
SSO
Country
Flag of ESES / SPN
Related business
Manufacturer
Endurosat
Mission
Operational Commercial Communications
Bus & Motor
CUBESAT 6U, Unknown motor
Mass
7.407 kg wet, 7.407 kg dry
Launch date (UTC)
2024-08-16 (1 year ago)
Launch vehicle
FALCON 9
Launch site
Air Force Western Test Range (AFWTR)
Object type
Payload
Rocket body
Debris
Shape & HBR
Box + 2 Pan, 0.2 m
Radar Cross Section
0.092 m², Medium (>0.1 m² and < 1m²)

Expand to show TLE details & history
Last TLE update: 6 hours ago

TLE from 6 hours ago
0 SATELIOT_4
1 60537U 24149BX  25289.58531603  .00002683  00000-0  24848-3 0  9996
2 60537  97.7002   3.5567 0003216 114.5705 245.5851 14.95331978 63558
Epoch: 2025-10-16T14:02Z
TLE epoch observation values (Epoch: 2025-10-16T14:02:51.304Z)
Latitude
-0.00008°
Longitude
127.50002°
Altitude
585.317 km
Speed
7.567 km/s
True Right ascension
00h 14m 13s
True Declination
0° 00' 00"
Sunlit
Object was in full shadow at epoch
Visualization orbit readout
Latitude
Unknown
Longitude
Unknown
Altitude
Unknown
Speed
Unknown
Apparent Right ascension
Unknown
Apparent Declination
Unknown
Sunlit
N/A
Visualization observer readout
Local Sidereal Time
14:42:01
Azimuth
Unknown
Elevation
Unknown
Doppler factor
Unknown
Orbital elements
Apogee altitude
580.591 km
Perigee altitude
576.117 km
Semi-major axis
6,956.491 km
Eccentricity
0.00032
Inclination
97.7002°
RAAN
3.5567°
Arg. of periapsis
114.5705°
True anomaly
245.55155°
Mean anomaly
245.5851°
Eccentric anomaly
245.56832°
Mean motion
3.74074 °/min
Orbital period
96.24 mins
BSTAR
0.00024848
Loading maneuver chart data...
Computing Atmospheric mass density...
Loading historical data...
Loading historical data...
Loading historical data...
Loading historical data...
Loading historical data...
Loading historical data...
Loading historical data...

Documentation

Showing up to 5 results
|